This is the latest recevied weather packets stored in our database for station/object K6CED. If no packets are shown the sender has not sent any weather packets the latest 10 day(s).
| Time | Temp. | Humidity | Pressure | Rain* | Wind** | Luminosity | Snow |
|---|---|---|---|---|---|---|---|
| 1788229344 | 24.44° C | 54% | 1015.4 hPa | 0 mm | - | 2 W/m² | - |
| 1788229040 | 24.44° C | 52% | 1015.3 hPa | 0 mm | - | 3 W/m² | - |
| 1788228735 | 25° C | 50% | 1015.2 hPa | 0 mm | - | 6 W/m² | - |
| 1788228430 | 25° C | 50% | 1015.2 hPa | 0 mm | - | 9 W/m² | - |
| 1788228126 | 25° C | 49% | 1015.1 hPa | 0 mm | - | 12 W/m² | - |
| 1788227826 | 25.56° C | 48% | 1015.1 hPa | 0 mm | - | 15 W/m² | - |
| 1788227521 | 25.56° C | 48% | 1015.1 hPa | 0 mm | - | 18 W/m² | - |
| 1788227215 | 25.56° C | 47% | 1014.9 hPa | 0 mm | - | 21 W/m² | - |
| 1788226911 | 26.11° C | 46% | 1014.9 hPa | 0 mm | - | 24 W/m² | - |
| 1788226607 | 26.67° C | 45% | 1014.8 hPa | 0 mm | - | 33 W/m² | - |
| 1788226302 | 27.22° C | 44% | 1014.9 hPa | 0 mm | - | 36 W/m² | - |
| 1788225997 | 27.22° C | 44% | 1014.9 hPa | 0 mm | - | 42 W/m² | - |
| 1788225692 | 27.78° C | 44% | 1014.9 hPa | 0 mm | - | 51 W/m² | - |
| 1788225389 | 27.78° C | 45% | 1015 hPa | 0 mm | - | 58 W/m² | - |
| 1788225087 | 27.78° C | 43% | 1014.9 hPa | 0 mm | - | 65 W/m² | - |
| 1788224782 | 27.78° C | 43% | 1014.9 hPa | 0 mm | - | 77 W/m² | - |
| 1788224481 | 28.33° C | 40% | 1014.8 hPa | 0 mm | - | 92 W/m² | - |
| 1788224180 | 28.33° C | 40% | 1015.1 hPa | 0 mm | - | 104 W/m² | - |
| 1788223876 | 28.89° C | 39% | 1015.1 hPa | 0 mm | - | 108 W/m² | - |
| 1788223575 | 28.89° C | 38% | 1015.2 hPa | 0 mm | - | 117 W/m² | - |
| 1788223270 | 28.89° C | 38% | 1015.1 hPa | 0 mm | - | 136 W/m² | - |
| 1788222965 | 28.89° C | 38% | 1015 hPa | 0 mm | - | 154 W/m² | - |
| 1788222663 | 28.89° C | 38% | 1015 hPa | 0 mm | - | 171 W/m² | - |
| 1788222359 | 29.44° C | 37% | 1015.1 hPa | 0 mm | - | 190 W/m² | - |
| 1788222054 | 30° C | 35% | 1014.9 hPa | 0 mm | - | 204 W/m² | - |
* Rain latest hour (hover to see other rain measurements)
** Current wind speed in m/s (hover to see current wind gust speed)